• In Netherlands
  • List of Countries
  • For 7 days
  • Water Temperature
  • Satellite Maps
  • Weather Map
  • Weather Widgets
  • user-avatar
    Login

    Hourly Weather Varna

    Today, 26 July, Wednesday

    Time Temperature Precipitation Wind Pressure Humidity
    00:00 +20°C° 0.2 mm 3 mps 738 mmHg 86%
    01:00 +20°C° 0.2 mm 3 mps 738 mmHg 86%
    02:00 +20°C° 0.2 mm 3 mps 738 mmHg 86%
    03:00 +19°C° 0 mm 3 mps 738 mmHg 86%
    04:00 +19°C° 0 mm 4 mps 738 mmHg 87%
    05:00 +19°C° 0 mm 4 mps 738 mmHg 87%
    06:00 +20°C° 0 mm 4 mps 738 mmHg 81%
    07:00 +21°C° 0 mm 4 mps 738 mmHg 75%
    08:00 +23°C° 0 mm 4 mps 738 mmHg 67%
    09:00 +26°C° 0 mm 3 mps 738 mmHg 60%
    10:00 +28°C° 0 mm 3 mps 738 mmHg 53%
    11:00 +30°C° 0 mm 2 mps 738 mmHg 45%
    12:00 +31°C° 0 mm 3 mps 738 mmHg 43%
    13:00 +33°C° 0 mm 3 mps 738 mmHg 42%
    14:00 +33°C° 0 mm 4 mps 738 mmHg 40%
    15:00 +33°C° 0 mm 4 mps 737 mmHg 43%
    16:00 +32°C° 0 mm 4 mps 737 mmHg 46%
    17:00 +30°C° 0 mm 4 mps 737 mmHg 50%
    18:00 +28°C° 0.1 mm 3 mps 737 mmHg 59%
    19:00 +26°C° 0.1 mm 3 mps 737 mmHg 68%
    20:00 +24°C° 0.1 mm 2 mps 737 mmHg 77%
    21:00 +23°C° 0.1 mm 2 mps 737 mmHg 80%
    22:00 +23°C° 0.1 mm 2 mps 737 mmHg 84%
    23:00 +22°C° 0.1 mm 1 mps 738 mmHg 88%

    Tomorrow, 27 July, Thursday

    Time Temperature Precipitation Wind Pressure Humidity
    00:00 +22°C° 0 mm 1 mps 737 mmHg 88%
    01:00 +22°C° 0 mm 1 mps 737 mmHg 89%
    02:00 +22°C° 0 mm 1 mps 737 mmHg 90%
    03:00 +22°C° 0 mm 1 mps 737 mmHg 90%
    04:00 +21°C° 0 mm 1 mps 737 mmHg 91%
    05:00 +21°C° 0 mm 1 mps 737 mmHg 91%
    06:00 +23°C° 0 mm 2 mps 737 mmHg 85%
    07:00 +24°C° 0 mm 2 mps 738 mmHg 79%
    08:00 +25°C° 0 mm 3 mps 738 mmHg 74%
    09:00 +26°C° 0 mm 3 mps 738 mmHg 68%
    10:00 +28°C° 0 mm 3 mps 738 mmHg 62%
    11:00 +29°C° 0 mm 3 mps 738 mmHg 56%
    12:00 +30°C° 0.2 mm 3 mps 738 mmHg 55%
    13:00 +30°C° 0.2 mm 2 mps 738 mmHg 54%
    14:00 +30°C° 0.2 mm 2 mps 738 mmHg 53%
    15:00 +29°C° 0.7 mm 3 mps 738 mmHg 56%
    16:00 +28°C° 0.7 mm 4 mps 738 mmHg 59%
    17:00 +28°C° 0.7 mm 5 mps 737 mmHg 62%
    18:00 +26°C° 0 mm 5 mps 738 mmHg 67%
    19:00 +25°C° 0 mm 5 mps 738 mmHg 72%
    20:00 +23°C° 0 mm 5 mps 738 mmHg 77%
    21:00 +22°C° 0.3 mm 6 mps 738 mmHg 79%
    22:00 +21°C° 0.3 mm 6 mps 738 mmHg 81%
    23:00 +21°C° 0.3 mm 7 mps 739 mmHg 84%

    Day after tomorrow, 28 July, Friday

    Time Temperature Precipitation Wind Pressure Humidity
    00:00 +20°C° 0.8 mm 6 mps 739 mmHg 84%
    01:00 +20°C° 0.8 mm 6 mps 739 mmHg 85%
    02:00 +19°C° 0.8 mm 5 mps 739 mmHg 85%
    03:00 +19°C° 0.2 mm 6 mps 739 mmHg 83%
    04:00 +18°C° 0.2 mm 7 mps 739 mmHg 81%
    05:00 +17°C° 0.2 mm 8 mps 739 mmHg 79%
    06:00 +18°C° 0.6 mm 8 mps 740 mmHg 75%
    07:00 +20°C° 0.6 mm 8 mps 740 mmHg 70%
    08:00 +21°C° 0.6 mm 8 mps 741 mmHg 66%
    09:00 +23°C° 0.3 mm 7 mps 741 mmHg 60%
    10:00 +26°C° 0.3 mm 7 mps 741 mmHg 55%
    11:00 +28°C° 0.3 mm 6 mps 742 mmHg 49%
    12:00 +29°C° 0 mm 6 mps 742 mmHg 46%
    13:00 +30°C° 0 mm 6 mps 742 mmHg 43%
    14:00 +30°C° 0 mm 5 mps 741 mmHg 40%
    15:00 +30°C° 0 mm 5 mps 742 mmHg 41%
    16:00 +30°C° 0 mm 5 mps 742 mmHg 42%
    17:00 +29°C° 0 mm 5 mps 742 mmHg 44%
    18:00 +28°C° 0 mm 4 mps 742 mmHg 47%
    19:00 +26°C° 0 mm 4 mps 743 mmHg 51%
    20:00 +25°C° 0 mm 3 mps 743 mmHg 55%
    21:00 +24°C° 0 mm 3 mps 743 mmHg 56%
    22:00 +22°C° 0 mm 4 mps 744 mmHg 58%
    23:00 +22°C° 0 mm 4 mps 744 mmHg 59%

    29 July, Saturday

    Time Temperature Precipitation Wind Pressure Humidity
    00:00 +21°C° 0 mm 4 mps 745 mmHg 60%
    01:00 +21°C° 0 mm 4 mps 745 mmHg 60%
    02:00 +20°C° 0 mm 4 mps 745 mmHg 61%
    03:00 +20°C° 0 mm 4 mps 745 mmHg 62%
    04:00 +19°C° 0 mm 4 mps 746 mmHg 64%
    05:00 +19°C° 0 mm 4 mps 746 mmHg 66%
    06:00 +21°C° 0 mm 4 mps 747 mmHg 62%
    07:00 +22°C° 0 mm 4 mps 747 mmHg 59%
    08:00 +25°C° 0 mm 4 mps 748 mmHg 55%
    09:00 +27°C° 0 mm 4 mps 748 mmHg 50%
    10:00 +28°C° 0 mm 4 mps 748 mmHg 45%
    11:00 +30°C° 0 mm 4 mps 749 mmHg 40%
    12:00 +32°C° 0 mm 4 mps 749 mmHg 38%
    13:00 +32°C° 0 mm 4 mps 749 mmHg 35%
    14:00 +33°C° 0 mm 4 mps 748 mmHg 33%
    15:00 +33°C° 0 mm 4 mps 748 mmHg 35%
    16:00 +33°C° 0 mm 4 mps 748 mmHg 37%
    17:00 +32°C° 0 mm 4 mps 748 mmHg 38%
    18:00 +29°C° 0 mm 3 mps 749 mmHg 46%
    19:00 +27°C° 0 mm 3 mps 749 mmHg 55%
    20:00 +25°C° 0 mm 2 mps 749 mmHg 63%
    21:00 +24°C° 0 mm 2 mps 749 mmHg 67%
    22:00 +23°C° 0 mm 2 mps 749 mmHg 71%
    23:00 +23°C° 0 mm 2 mps 750 mmHg 75%

    30 July, Sunday

    Time Temperature Precipitation Wind Pressure Humidity
    00:00 +21°C° 0 mm 2 mps 750 mmHg 75%
    01:00 +21°C° 0 mm 2 mps 750 mmHg 74%
    02:00 +21°C° 0 mm 2 mps 749 mmHg 74%
    03:00 +22°C° 0 mm 1 mps 750 mmHg 73%
    04:00 +22°C° 0 mm 1 mps 750 mmHg 73%
    05:00 +21°C° 0 mm 1 mps 750 mmHg 72%
    06:00 +24°C° 0 mm 1 mps 750 mmHg 65%
    07:00 +26°C° 0 mm 1 mps 750 mmHg 57%
    08:00 +28°C° 0 mm 1 mps 750 mmHg 50%
    09:00 +29°C° 0 mm 1 mps 750 mmHg 46%
    10:00 +30°C° 0 mm 2 mps 750 mmHg 41%
    11:00 +32°C° 0 mm 2 mps 750 mmHg 37%
    12:00 +33°C° 0 mm 3 mps 750 mmHg 36%
    13:00 +34°C° 0 mm 3 mps 750 mmHg 35%
    14:00 +34°C° 0 mm 4 mps 750 mmHg 34%
    15:00 +33°C° 0 mm 4 mps 749 mmHg 36%
    16:00 +32°C° 0 mm 5 mps 749 mmHg 39%
    17:00 +32°C° 0 mm 5 mps 749 mmHg 41%
    18:00 +28°C° 0 mm 4 mps 749 mmHg 50%
    19:00 +26°C° 0 mm 4 mps 749 mmHg 60%
    20:00 +24°C° 0 mm 3 mps 749 mmHg 69%
    21:00 +22°C° 0 mm 3 mps 749 mmHg 74%
    22:00 +21°C° 0 mm 3 mps 749 mmHg 79%
    23:00 +20°C° 0 mm 2 mps 749 mmHg 84%

    31 July, Monday

    Time Temperature Precipitation Wind Pressure Humidity
    00:00 +20°C° 0 mm 2 mps 749 mmHg 85%
    01:00 +20°C° 0 mm 2 mps 749 mmHg 86%
    02:00 +20°C° 0 mm 2 mps 749 mmHg 87%
    03:00 +19°C° 0 mm 3 mps 749 mmHg 88%
    04:00 +19°C° 0 mm 3 mps 749 mmHg 89%
    05:00 +19°C° 0 mm 3 mps 749 mmHg 90%
    06:00 +21°C° 0 mm 3 mps 749 mmHg 80%
    07:00 +23°C° 0 mm 4 mps 750 mmHg 70%
    08:00 +26°C° 0 mm 4 mps 750 mmHg 60%
    09:00 +28°C° 0 mm 5 mps 750 mmHg 54%
    10:00 +29°C° 0 mm 5 mps 750 mmHg 48%
    11:00 +32°C° 0 mm 6 mps 750 mmHg 42%
    12:00 +32°C° 0 mm 6 mps 750 mmHg 40%
    13:00 +33°C° 0 mm 6 mps 750 mmHg 38%
    14:00 +33°C° 0 mm 7 mps 749 mmHg 36%
    15:00 +33°C° 0 mm 6 mps 749 mmHg 38%
    16:00 +32°C° 0 mm 6 mps 749 mmHg 40%
    17:00 +30°C° 0 mm 6 mps 749 mmHg 41%
    18:00 +28°C° 0 mm 5 mps 749 mmHg 49%
    19:00 +26°C° 0 mm 4 mps 749 mmHg 57%
    20:00 +23°C° 0 mm 4 mps 749 mmHg 66%
    21:00 +22°C° 0 mm 3 mps 749 mmHg 69%
    22:00 +21°C° 0 mm 3 mps 750 mmHg 73%
    23:00 +21°C° 0 mm 3 mps 750 mmHg 76%
    Show more